Flag for Germany Weather past 2 weeks in Leinfelden-Echterdingen, Baden-Württemberg, Germany

Now
81 °F

Sunny.


Feels Like: 80 °F
Forecast: 54 / 75 °F
Wind: 13 mph from East

Location: Stuttgart-Echterdingen

Current Time: Jul 23, 2014 at 7:06:07 PM

Latest Report: Jul 23, 2014 at 6:20 PM


Visibility: 10 mi

Pressure: 29.95 "Hg

Humidity: 37%

Dew point: 52 °F

Location of Leinfelden-EchterdingenLocation

Historic Weather in Leinfelden-Echterdingen — Graph

°F

Leinfelden-Echterdingen temperature yesterday

Maximum temperature yesterday: 75 °F (at 4:20 PM)
Minimum temperature yesterday: 64 °F (at 1:50 AM)
Average temperature yesterday: 67 °F

Past Weeks' High & Low Weather Summary

 TemperatureHumidityPressure
High91 °F (Jul 19, 3:50 PM)100% (Jul 11, 3:20 AM)30.21 "Hg (Jul 11, 3:20 AM)
Low52 °F (Jul 9, 9:20 PM)22% (Jul 18, 2:50 PM)29.77 "Hg (Jul 10, 1:50 AM)
Average67 °F73%29.98 "Hg
* Reported Jul 8 5:20 PM — Jul 23 5:50 PM, Leinfelden-Echterdingen, Weather by CustomWeather, © 2014

Note: Actual official high and low records may vary slightly from our data, if they occured in-between our weather recording intervals... More about our weather records

Advertising

Leinfelden-Echterdingen weather history for previous 24 hours

 ConditionsComfort  
Time TempWeatherWind HumidityBarometerVisibility
5:50 PM
Jul 23
81 °FSunny.12 mph39%29.95 "Hg10 mi
5:20 PM81 °FSunny.9 mph37%29.95 "Hg10 mi
4:50 PM81 °FSunny.6 mph39%29.95 "Hg10 mi
4:20 PM79 °FSunny.9 mph51%29.98 "Hg10 mi
3:50 PM79 °FSunny.10 mph45%29.98 "Hg10 mi
3:20 PM77 °FSunny.14 mph51%29.98 "Hg10 mi
12:20 PM75 °FPartly sunny.8 mph65%30.01 "HgN/A
11:20 AM73 °FScattered clouds.7 mph65%30.01 "HgN/A
10:50 AM72 °FScattered clouds.7 mph69%30.04 "HgN/A
7:50 AM61 °FFog.3 mph100%30.01 "Hg2 mi
7:20 AM61 °FFog.2 mph100%30.01 "Hg1 mi
6:50 AM61 °FFog.1 mph100%30.01 "Hg0 mi
6:20 AM61 °FFog.1 mph100%30.01 "Hg0 mi
5:50 AM61 °FFog.1 mph100%30.01 "Hg0 mi
5:20 AM61 °FFog.1 mph100%30.01 "Hg0 mi
4:50 AM61 °FFog.1 mph100%30.01 "Hg0 mi
4:20 AM61 °FFog.1 mph100%30.01 "Hg0 mi
3:50 AM61 °FFog.1 mph100%30.01 "Hg0 mi
3:20 AM61 °FFog.1 mph100%30.01 "Hg0 mi
2:50 AM61 °FFog.1 mph100%30.01 "Hg0 mi
2:20 AM61 °FSleet. Overcast.1 mph100%30.01 "Hg0 mi
1:50 AM61 °FSleet. Overcast.1 mph100%30.01 "Hg2 mi
Weather by CustomWeather, © 2014

See weather overviewHow to use our weather pages